Location: Stamford Observatory
(41.1241°N, 73.5498°W)
Time: 23:57:21
(UTC-05:00)

Daily predictions for brighter satellites

Satellite Brightness Start Highest point End
(mag) Time Altitude Azimuth Time Altitude Azimuth Time Altitude Azimuth
SL-16 R/B 2.9 17:17:23 10° SSE 17:22:22 34° ESE 17:27:24 10° NE
COSMOS 2428 4.2 17:19:08 10° WSW 17:24:19 35° WNW 17:29:32 10° N
SPOT 3 Rocket 3.5 17:20:12 10° SSE 17:25:19 77° ENE 17:30:31 10° N
Meteor 2-10 4.3 17:20:30 10° N 17:25:26 46° ENE 17:30:29 10° SSE
Cosmos 44 Rocket 4.3 17:21:24 10° SW 17:26:20 47° NW 17:31:12 10° NNE
CZ-3A R/B 3.5 17:24:57 10° NW 17:29:58 35° NNE 17:34:40 10° E
Cosmos 2297 4.0 17:29:42 10° NNW 17:35:14 48° ENE 17:40:45 10° SE
SL-14 R/B 3.2 17:31:37 10° S 17:35:32 78° E 17:39:32 10° N
Cosmos 304 Rocket 4.0 17:32:51 10° S 17:37:29 50° ESE 17:42:09 10° NNE
Cosmos 1484 Rocket 3.0 17:33:52 10° SSE 17:37:42 53° ENE 17:41:37 10° N
Resurs 01 Rocket 3.5 17:37:06 10° ENE 17:37:59 11° ENE 17:38:51 10° NE
Cosmos 1340 Rocket 3.0 17:35:38 10° S 17:39:25 49° E 17:43:13 10° NNE
Cosmos 2279 Rocket 4.0 17:37:42 10° N 17:43:54 65° E 17:50:06 10° SSE
Meteor 1-28 Rocket 3.9 17:42:12 10° NNE 17:45:34 32° E 17:48:56 10° SSE
Lacrosse 4 Rocket 2.7 17:42:52 10° N 17:45:49 19° NE 17:48:47 10° E
Cosmos 1151 Rocket 3.4 17:42:30 10° NNW 17:46:46 68° W 17:51:02 10° S
Cosmos 372 Rocket 4.2 17:46:25 10° NNW 17:51:30 74° WSW 17:56:34 10° S
IDEFIX/ARIANE 42P 3.8 17:47:14 10° S 17:52:12 46° W 17:57:16 10° NNW
Cosmos 540 Rocket 4.2 17:49:24 10° SW 17:54:28 55° WNW 17:59:34 10° N
Aureole 2 Rocket 3.2 17:50:53 10° SSW 17:54:36 62° WNW 17:58:41 10° NNE
Tiangong 1 3.4 17:55:02 10° SSE 17:55:51 11° SE 17:56:40 10° SE
NOAA 12 4.4 17:54:26 10° SE 17:59:22 43° ENE 18:04:20 10° N
USA 215 3.7 17:53:46 10° E 17:59:51 43° NNE 18:05:57 10° NW
Cosmos 2058 3.2 17:57:24 10° SSW 18:01:30 71° W 18:05:36 10° N
Nadezhda 4 Rocket 4.2 17:57:18 10° SSE 18:03:15 48° E 18:09:17 10° NNE
ATLAS 5 CENTAUR R/B 4.2 18:02:17 10° N 18:04:13 12° NNE 18:05:48 11° NE
Cosmos 1805 Rocket 3.5 18:00:41 10° S 18:05:06 72° E 18:09:34 10° NNE
Lacrosse 5 4.0 18:03:04 10° NNW 18:05:25 13° N 18:07:45 10° NNE
SKYMED 2 3.5 18:03:08 10° NNE 18:07:30 90° NW 18:11:50 10° SSW
Cosmos 2242 Rocket 4.3 18:03:37 10° NNE 18:07:33 31° ENE 18:11:29 10° SE
Cosmos 1461 3.0 18:04:03 10° SW 18:08:14 74° WNW 18:12:05 11° NNE
Cosmos 1900 4.3 18:03:34 10° NNW 18:08:33 86° ENE 18:13:34 10° SSE
Cosmos 2180 Rocket 4.5 18:06:46 10° N 18:12:58 90° ENE 18:19:13 10° S
Cosmos 1626 2.0 18:10:32 10° S 18:14:14 70° E 18:17:59 10° NNE
Aureole 1 Rocket 4.1 18:11:13 10° S 18:16:26 52° E 18:23:16 10° NNE
Sich 1 3.0 18:13:47 10° S 18:18:09 64° E 18:22:33 10° NNE
Cosmos 2219 Rocket 4.3 18:15:35 10° WSW 18:20:00 23° NW 18:24:26 10° N
Lacrosse 5 rocket 3.4 18:18:01 10° WNW 18:21:16 26° SW 18:24:39 10° S
Cosmos 1356 Rocket 3.2 18:17:33 10° S 18:21:32 84° E 18:25:33 10° N
ALOS 2.9 18:19:58 10° SE 18:24:08 33° ENE 18:28:19 10° N
Cosmos 1092 Rocket 4.1 18:19:29 10° SSE 18:25:35 52° E 18:31:43 10° NNE
Cosmos 2333 Rocket 4.1 18:22:07 10° WSW 18:26:46 26° NW 18:31:28 10° N
Cosmos 1603 4.0 18:21:53 10° S 18:27:07 42° ESE 18:30:06 23° NE
Cosmos 1633 Rocket 2.9 18:24:07 10° S 18:28:30 73° E 18:32:54 10° NNE
FengYun 1-2 T 4.5 18:24:57 10° SE 18:30:10 44° ENE 18:35:22 10° N
Cosmos 2278 Rocket 4.5 18:29:21 10° NW 18:33:59 26° WSW 18:38:37 10° SSW
Cosmos 292 Rocket 4.1 18:29:39 10° S 18:34:07 42° ESE 18:35:32 33° ENE
Coronas F rocket 2.4 18:32:15 10° S 18:33:36 30° S 18:33:36 30° S
Cosmos 1455 2.2 18:32:32 10° N 18:36:21 81° W 18:40:10 10° S
USA 229 DEB 3.6 18:35:35 10° SSW 18:42:25 76° ESE 18:47:09 22° NE
USA 229 3.6 18:35:41 10° SSW 18:42:30 76° ESE 18:47:12 22° NE
Abrixas 4.3 18:40:43 10° WNW 18:42:57 22° NNW 18:42:57 22° NNW
Cosmos 1184 Rocket 3.5 18:43:20 10° SSW 18:46:36 54° WNW 18:48:43 20° N
SJ-6B 3.0 18:44:32 10° S 18:48:37 76° WSW 18:52:47 10° NNW
Spot 2 Rocket 3.5 18:44:17 10° SSE 18:49:11 55° ENE 18:54:07 10° N
Cosmos 1862 Rocket 4.4 18:47:22 10° N 18:50:00 32° NNE 18:50:00 32° NNE
Iridium 4 Rocket 2.9 18:48:47 10° S 18:53:15 85° E 18:57:11 12° N
SL-19 R/B 4.2 18:50:45 10° SSE 18:56:37 81° ENE 19:02:14 10° NNW
Cosmos 2237 Rocket 4.5 18:54:25 10° W 18:58:25 19° NW 19:02:27 10° N
Cosmos 2369 Rocket 2.9 18:56:51 10° N 19:01:00 35° NNE 19:01:00 35° NNE
H-2A ROCKET BODY 3.9 18:46:06 10° WSW 19:05:55 37° SSW 19:09:18 23° SSE
SL-16 R/B 3.6 19:01:17 10° WSW 19:06:25 35° WNW 19:11:35 10° N
FREGAT/IRIS 4.4 19:04:32 10° SSW 19:07:19 33° W 19:10:08 10° NNW
Resurs 01 Rocket 1.6 19:12:15 41° S 19:13:46 82° WSW 19:18:14 10° NNW
Cosmos 923 Rocket 4.2 19:09:35 10° SSW 19:14:46 70° WNW 19:16:59 34° N
Cosmos 1933 Rocket 3.7 19:11:43 10° SSW 19:16:10 74° W 19:16:31 69° NW
Cosmos 1680 Rocket 3.5 19:15:58 10° SSW 19:21:11 80° WNW 19:22:05 61° N
Cosmos 1655 Rocket 3.9 19:16:10 10° S 19:22:30 71° E 19:24:06 51° NNE
Lacrosse 4 Rocket 2.6 19:20:54 10° NW 19:24:41 39° WSW 19:25:17 37° SW
Cosmos 1627 Rocket 4.4 19:18:42 10° S 19:24:54 85° W 19:31:04 10° N
CZ-4C R/B 4.1 19:19:21 10° NNW 19:23:28 23° NNE 19:23:28 23° NNE
FENGYUN 3A 4.1 19:24:55 10° S 19:30:11 59° W 19:35:31 10° NNW
Tiangong 1 4.4 19:28:33 10° WSW 19:28:39 11° WSW 19:28:39 11° WSW
NOSS 3-1 (C) 3.6 19:28:19 10° SSW 19:32:51 56° S 19:32:51 56° S
USA 215 3.5 19:40:52 48° SSE 19:42:38 66° SW 19:49:10 10° NW
Cosmos 1943 4.0 19:38:21 10° SSW 19:41:55 41° SSW 19:41:55 41° SSW
ATLAS 3B R/B 4.5 19:43:11 10° NNW 19:45:53 17° N 19:45:53 17° N
Lacrosse 5 4.2 19:46:10 10° NNW 19:47:19 15° NNW 19:47:19 15° NNW
ATLAS 5 CENTAUR R/B 3.9 19:44:58 10° NNW 19:47:23 23° N 19:47:23 23° N
Cosmos 2026 Rocket 4.4 19:46:00 10° SSW 19:52:05 58° W 19:55:59 23° N
ALOS 4.4 19:57:48 10° SSW 20:01:36 24° W 20:05:24 10° NW
Cosmos 1943 Rocket 4.4 20:01:53 10° NNW 20:02:44 15° NNW 20:02:44 15° NNW
